Theta_e
341 339 343 349 351 352 351 352 352 353 352 352 352 352 352 352 351 351 350 350 349 349 348 348 348 348 349 348 348 348 348 348 349 349 349 349 348 348 348 348 348 347 350 350 350 350 351 351 350 349 346 345 344 343 343 342 343 343 343 343 344 344 345 345 345 346 349 350 351 350 349 349 350 351 352 351 350 349 349 349 349 346 346 349 351
340 341 344 347 350 352 351 351 352 352 352 352 352 352 352 352 351 351 350 349 349 348 347 348 348 348 348 348 348 347 348 348 349 349 349 348 348 348 348 347 347 347 350 350 350 350 350 349 348 349 347 345 343 342 341 341 341 341 341 341 341 341 342 343 343 343 345 348 350 350 349 348 349 350 351 351 350 350 349 349 349 344 344 350 351
342 341 344 346 349 351 351 351 351 352 352 352 352 352 351 351 350 350 349 349 348 348 348 348 348 348 348 347 347 348 348 348 348 349 348 348 348 347 347 347 347 346 348 349 349 349 349 349 348 348 346 344 343 341 341 340 339 339 339 339 340 340 340 340 341 341 343 345 347 347 347 348 348 348 350 351 350 349 348 348 348 347 346 351 351
340 341 344 346 347 348 350 351 351 351 352 352 352 351 351 350 349 349 348 348 348 347 347 347 348 348 348 348 348 347 348 348 348 348 348 348 347 346 346 347 346 347 348 349 348 348 348 348 347 346 344 342 341 340 339 338 338 337 337 336 337 337 339 339 340 340 341 342 341 343 343 341 344 347 349 350 350 349 349 348 348 347 348 348 350
340 341 343 345 346 347 350 350 352 352 351 352 351 351 350 350 349 349 348 348 348 347 347 347 348 348 348 348 348 348 348 348 348 348 348 347 347 347 347 347 347 347 348 348 347 346 348 347 346 344 342 341 340 339 338 337 336 336 335 334 335 335 335 337 338 339 338 338 337 337 338 341 341 347 347 347 348 348 349 348 346 346 346 347 349
339 340 343 345 345 345 348 350 351 351 352 352 351 351 350 349 349 348 348 348 347 347 347 348 348 348 348 348 348 349 349 348 348 347 347 347 346 347 347 346 347 347 347 348 346 346 347 346 344 343 341 339 338 338 337 336 335 334 333 332 332 333 333 334 336 336 337 336 334 334 338 341 342 345 348 346 346 346 348 346 346 345 346 347 346
340 340 343 344 345 345 347 350 351 351 351 351 351 350 349 349 349 348 348 348 347 347 347 348 348 347 348 348 348 349 348 348 348 347 347 346 346 346 346 346 346 347 347 347 346 345 345 344 343 342 340 338 337 336 335 334 333 332 331 329 328 328 330 331 334 333 336 330 327 332 340 341 341 342 348 347 347 346 346 346 346 346 345 345 345
340 341 342 343 344 344 345 350 351 351 351 351 351 350 349 349 349 348 348 348 347 347 347 347 348 348 349 348 348 349 349 349 349 348 346 345 345 346 346 346 346 347 346 346 345 344 343 342 342 341 339 338 336 335 333 332 331 329 327 326 326 326 329 330 331 334 334 325 328 332 338 340 340 342 347 346 347 346 346 345 346 346 344 345 345
339 340 341 342 343 343 345 347 351 351 351 350 350 350 349 349 349 349 348 348 348 348 347 348 348 348 348 349 349 348 349 348 348 347 346 345 345 346 346 346 345 346 345 343 343 342 341 341 339 339 338 336 334 332 331 330 328 326 325 324 324 325 328 329 331 332 326 325 328 330 338 340 339 340 346 346 348 346 347 346 346 346 344 345 344
339 339 340 341 342 341 345 347 351 351 351 351 350 350 349 349 349 349 349 348 348 348 348 348 348 349 349 349 349 349 348 348 348 346 345 345 346 346 346 345 345 343 342 342 341 340 339 338 338 337 336 335 331 330 329 326 325 325 323 323 323 326 328 330 332 327 323 325 327 328 337 343 340 341 344 346 347 346 346 343 344 344 344 345 344
338 338 339 340 341 341 345 349 350 350 351 350 351 350 350 350 349 349 348 348 348 348 348 349 349 348 348 349 348 349 348 348 347 346 345 345 345 345 345 344 343 342 342 341 340 338 337 337 336 335 335 333 329 328 327 325 324 324 323 322 323 326 329 330 327 321 323 325 327 329 337 339 333 338 345 345 346 345 344 343 344 344 344 343 343
335 337 338 339 339 340 345 347 349 350 350 350 351 350 350 349 349 349 348 348 348 348 348 349 348 349 349 348 348 348 348 348 346 345 344 343 343 343 342 342 341 340 340 339 338 335 335 333 333 333 331 330 327 326 324 324 323 323 323 323 325 327 327 330 322 321 322 325 326 327 327 329 332 339 342 342 344 344 343 343 343 343 342 342 341
333 334 338 339 340 340 343 347 347 349 350 351 351 350 350 349 349 349 349 348 348 348 348 348 349 349 349 349 348 348 348 347 346 344 343 342 341 341 341 341 341 340 340 337 337 337 333 333 332 330 331 327 326 325 324 323 323 322 322 323 325 326 327 327 319 320 321 323 325 325 326 327 329 340 339 340 340 340 341 341 341 341 341 341 341
332 332 338 339 340 337 340 343 345 347 349 350 351 350 350 350 350 349 349 348 348 348 348 348 348 349 348 348 348 347 347 347 345 344 342 341 340 340 340 340 340 340 338 336 334 333 332 332 332 332 329 327 325 324 323 322 321 321 321 323 324 325 326 319 324 318 320 321 324 324 324 328 329 338 337 336 337 338 338 338 338 338 339 339 339
330 332 337 338 338 339 337 340 342 344 346 348 349 350 350 350 350 350 349 349 348 348 348 349 349 348 349 348 348 347 347 346 345 344 343 341 340 338 338 338 339 339 338 335 334 331 331 330 331 331 328 326 324 323 322 321 320 320 320 321 322 323 323 314 317 317 320 322 322 323 322 325 337 334 335 335 335 335 335 336 336 336 336 336 336
330 333 336 337 337 338 338 338 339 339 342 345 346 347 348 350 350 350 350 349 349 349 349 349 350 349 349 348 347 347 346 345 344 344 343 341 339 338 337 336 336 335 335 333 332 331 330 330 330 329 326 325 324 322 321 320 320 319 319 320 321 322 320 317 315 316 318 320 320 321 321 324 336 333 333 333 333 334 333 333 334 334 335 335 335
331 333 336 335 336 338 338 339 339 336 337 338 341 342 344 347 348 349 348 348 348 348 349 349 349 349 348 348 347 346 345 345 345 344 343 341 338 337 336 335 334 333 332 331 331 331 330 330 329 328 326 325 323 322 320 319 318 318 317 317 318 320 318 316 314 312 315 320 320 319 320 324 333 332 332 331 331 331 331 332 332 333 333 333 333
328 332 334 335 336 336 338 338 339 338 340 335 335 339 341 344 345 345 345 345 346 347 347 347 347 347 346 345 344 343 343 344 344 344 343 339 337 337 337 334 333 332 332 331 330 330 330 329 329 327 326 324 322 321 319 317 316 314 315 316 316 317 317 315 309 313 317 319 317 319 320 330 330 330 331 330 330 330 330 330 331 331 332 331 331
326 329 332 335 336 336 337 337 337 338 338 338 338 338 336 340 342 342 342 343 344 344 345 344 343 344 343 341 340 337 336 336 337 339 338 336 333 331 334 334 332 332 331 331 331 330 330 330 329 327 325 324 322 320 318 316 314 313 313 315 313 313 312 307 306 312 314 315 315 317 321 330 328 329 330 330 330 329 329 329 329 328 328 329 329
323 326 329 331 335 335 336 336 337 337 338 338 337 338 334 333 337 339 339 341 341 342 341 339 337 337 338 336 332 332 329 332 328 331 331 333 330 326 330 333 332 331 331 330 330 330 330 330 328 326 325 323 321 318 315 314 312 312 313 314 312 309 301 301 305 310 312 313 315 316 326 328 328 329 328 328 326 326 327 328 328 327 328 328 326
325 325 327 329 330 334 335 335 336 337 337 337 338 337 336 331 332 333 334 337 338 338 339 334 329 329 331 328 325 330 328 330 328 327 324 325 322 324 328 332 332 332 333 331 330 330 329 328 327 326 324 322 318 315 314 312 312 312 311 311 308 299 299 301 307 310 310 310 313 317 327 326 327 327 325 325 325 326 328 327 328 327 327 327 327
324 324 326 329 329 331 334 335 335 336 337 338 338 338 337 332 336 336 335 335 332 331 334 337 330 335 326 327 328 325 325 325 324 324 322 322 321 322 326 331 331 332 333 332 330 330 329 327 326 326 324 320 314 301 303 312 311 312 310 310 299 298 298 301 306 308 307 308 311 320 327 326 325 324 325 325 325 326 326 326 328 327 326 327 327
318 322 325 327 329 330 330 333 334 335 336 336 337 337 337 334 335 336 335 331 332 333 335 333 332 332 329 327 324 324 324 322 322 321 321 319 321 321 326 328 330 329 331 333 332 329 328 327 326 325 322 316 302 297 296 294 294 304 303 299 297 297 297 301 304 306 306 307 306 322 326 326 325 325 325 326 325 325 326 325 325 326 326 326 326
319 322 325 328 327 328 329 331 332 334 335 335 335 335 336 335 335 335 335 335 334 333 333 331 331 330 327 325 324 323 323 322 321 319 320 319 319 320 324 325 326 325 326 327 329 329 329 327 325 324 317 306 298 297 296 295 293 293 294 298 298 297 297 298 301 304 305 308 307 320 323 327 326 325 326 326 324 324 325 325 326 325 325 324 325
318 320 322 325 327 328 329 329 329 332 333 334 333 332 333 334 335 335 335 334 333 332 331 331 330 328 326 324 323 323 323 322 321 320 320 318 317 318 320 320 320 318 321 316 317 319 320 317 318 311 304 303 300 297 297 295 295 294 295 297 297 296 297 298 301 302 302 302 307 318 320 324 326 325 325 326 324 324 325 325 324 324 324 324 324
315 317 321 323 326 328 329 330 328 329 332 332 332 331 330 332 333 334 334 333 332 331 330 330 329 327 325 324 323 323 322 321 320 319 319 318 317 316 317 317 316 317 317 315 314 314 312 311 309 306 303 301 300 298 297 296 294 295 296 296 296 296 295 295 299 301 301 301 306 317 319 322 325 324 325 325 325 324 324 325 324 324 324 323 323
314 317 320 323 326 327 328 329 329 328 329 331 331 329 328 331 332 333 333 332 332 330 329 328 328 326 325 324 323 322 321 320 319 318 318 317 316 316 315 316 316 316 315 316 314 313 311 309 307 305 301 299 297 297 297 297 295 296 296 296 296 296 295 295 298 300 299 301 307 315 318 320 324 323 323 324 324 324 324 324 324 323 322 322 323
312 316 318 322 323 326 328 328 329 329 327 328 329 329 329 327 330 329 331 330 330 331 330 329 328 327 325 325 323 323 321 319 318 318 317 316 316 316 315 316 316 315 314 316 314 312 310 309 307 304 302 298 296 296 297 297 296 296 296 295 295 294 295 295 296 298 299 299 301 310 316 319 322 321 323 323 323 323 324 323 324 323 323 322 322
307 314 317 320 323 325 326 327 328 328 329 328 328 328 327 326 326 328 330 326 329 330 330 329 328 327 325 324 323 322 321 320 318 318 316 316 315 315 315 316 315 315 314 314 314 312 310 308 306 305 302 298 296 296 296 296 295 295 296 295 295 294 295 295 295 296 298 299 299 305 315 319 321 320 320 322 322 322 323 323 322 322 321 321 321
307 309 315 319 321 324 325 326 327 328 328 328 327 326 326 326 325 326 328 325 328 327 327 327 328 327 325 324 323 323 322 320 318 317 317 315 315 314 314 315 315 315 314 313 312 313 309 306 303 303 299 297 297 297 296 295 295 296 295 295 294 295 294 294 294 296 298 298 299 301 312 316 321 322 320 319 320 320 321 322 321 321 321 321 320
306 306 311 317 318 321 323 325 327 325 326 326 326 327 325 325 325 324 324 325 325 325 325 326 326 326 325 324 322 322 321 319 318 317 316 315 314 314 314 314 314 314 315 313 310 312 308 305 301 300 297 296 296 295 294 295 294 296 295 294 294 294 295 294 294 295 298 298 298 299 303 312 316 319 322 320 320 320 321 321 322 321 321 322 321
305 307 306 309 315 320 323 324 325 325 325 325 325 326 325 324 322 324 323 323 323 323 323 324 323 325 324 324 323 321 320 319 318 317 316 314 313 314 313 313 314 313 314 313 309 308 306 301 298 298 296 296 295 294 295 294 294 296 294 293 292 294 293 294 293 294 297 298 299 298 299 303 311 315 317 322 322 321 322 323 324 323 324 324 320
302 303 305 307 314 316 321 322 324 322 324 325 325 325 325 324 323 323 323 322 323 323 323 322 323 323 323 324 323 321 319 319 317 317 315 314 313 313 312 313 313 312 312 312 307 304 300 298 297 297 295 295 294 294 295 294 294 294 294 293 293 293 294 294 294 295 296 298 299 298 298 299 299 307 311 315 319 321 322 322 323 323 324 324 321
301 301 302 305 309 315 318 319 320 321 322 323 322 322 322 321 321 322 321 322 320 320 320 321 320 321 321 322 322 320 319 318 317 315 315 314 312 312 312 312 312 311 310 308 306 301 299 297 296 295 296 294 293 293 293 293 292 292 293 292 292 293 293 294 293 294 293 294 297 299 299 298 297 298 300 308 312 317 319 321 322 322 322 322 320
301 302 302 304 308 312 316 319 316 317 318 318 319 320 318 320 319 320 321 321 321 321 318 320 320 319 320 320 321 319 318 317 316 315 313 313 312 311 311 312 310 309 308 305 304 299 298 297 295 294 294 292 292 293 293 292 292 293 293 293 293 292 292 294 294 293 293 292 295 299 300 298 298 297 298 296 302 308 314 317 319 320 321 320 319
300 301 302 304 306 310 312 313 313 314 315 316 315 316 317 316 317 317 320 318 318 320 318 319 319 317 317 319 319 318 317 316 314 314 313 311 311 311 310 308 307 306 305 302 301 298 296 296 295 295 293 292 292 292 292 291 291 292 292 292 292 293 292 292 293 293 293 292 293 295 297 299 298 297 297 295 297 301 309 312 315 316 317 318 318
300 301 301 302 305 309 310 312 312 313 315 315 314 313 316 315 315 316 316 316 319 316 316 317 318 318 315 316 316 317 316 314 313 312 312 311 309 310 307 307 305 304 301 299 298 297 296 296 294 294 294 292 292 291 290 291 291 292 291 290 292 293 292 293 293 293 293 292 291 291 292 294 296 300 294 294 294 295 304 308 310 311 312 316 317
300 300 301 302 302 305 307 306 308 311 313 313 313 314 316 316 315 314 314 316 314 315 316 317 317 315 316 315 316 316 316 313 312 311 310 310 309 309 307 306 304 302 301 298 297 295 295 296 294 292 293 292 291 291 290 290 292 291 290 290 290 290 291 291 292 294 292 291 291 291 291 291 292 293 293 293 293 295 296 302 306 305 307 312 315
299 300 300 301 302 302 303 303 304 307 312 313 313 313 313 314 313 314 314 314 315 314 314 314 313 315 315 314 315 316 315 314 311 310 310 307 307 307 307 305 303 301 300 298 296 294 294 294 294 292 291 291 291 290 291 291 291 291 290 290 290 290 290 290 292 292 291 291 292 293 292 291 291 291 291 291 291 292 293 292 290 291 295 308 311
297 298 299 300 300 301 301 302 302 303 306 311 312 312 311 309 310 309 311 311 312 311 313 312 313 311 312 312 313 315 314 315 312 311 310 308 306 305 306 304 302 300 300 298 296 294 294 293 293 293 291 290 290 290 291 291 289 289 289 289 288 289 290 290 290 290 290 291 292 292 291 290 290 290 290 290 290 289 291 290 291 291 293 301 307
296 296 297 298 299 299 299 299 300 302 302 304 307 308 307 306 305 307 306 306 308 308 311 311 311 310 309 310 310 311 311 312 312 311 310 308 307 304 305 302 301 300 300 299 298 295 295 294 293 292 291 290 289 289 291 291 290 287 287 287 289 288 289 289 289 288 289 290 290 290 290 290 289 289 289 290 289 289 289 290 290 290 291 292 298
294 294 295 296 297 298 298 298 299 300 300 301 304 306 305 305 305 304 304 305 307 306 308 308 308 308 307 308 308 309 310 311 309 308 308 308 306 303 303 303 300 300 300 299 297 295 294 293 291 289 290 291 290 290 291 291 287 287 286 286 286 285 286 288 288 288 289 290 291 291 290 290 289 289 288 289 288 289 289 289 289 289 289 292 292
293 293 294 295 295 296 296 297 298 299 299 299 300 302 304 305 305 303 304 305 306 306 305 304 306 305 305 304 305 306 308 307 306 306 306 306 305 303 301 302 301 301 299 298 296 295 293 293 292 292 289 288 289 290 291 292 287 285 285 285 281 284 285 286 286 288 289 290 289 290 290 289 290 289 289 289 288 288 289 288 288 288 288 290 291
292 292 293 293 294 294 295 296 296 297 298 298 299 300 301 301 301 301 302 304 302 301 303 303 303 304 304 303 303 301 302 303 303 304 304 305 304 303 301 300 300 299 300 299 297 296 293 292 292 292 291 289 288 289 291 291 287 288 284 285 281 282 280 283 285 285 288 289 289 289 289 289 289 289 288 288 288 288 289 288 288 288 288 289 290
292 292 292 292 293 293 294 294 295 296 297 297 298 299 300 300 299 300 299 298 299 299 298 297 298 298 300 300 301 300 300 300 299 301 302 302 302 303 300 299 298 298 299 299 297 297 296 294 293 292 291 291 289 288 290 290 288 292 288 282 281 282 282 281 283 283 285 286 287 288 289 289 288 288 288 287 288 288 288 288 288 288 288 288 290
291 292 292 292 292 293 293 293 294 294 295 295 296 298 297 297 297 296 295 295 294 296 295 296 297 298 299 298 299 299 299 299 297 298 298 298 299 299 299 297 297 298 298 298 298 297 295 295 294 293 291 290 291 288 288 290 289 289 288 286 286 285 281 282 283 281 284 284 286 287 287 288 288 288 287 287 287 287 288 288 288 288 288 288 289
290 291 292 292 292 292 292 292 293 293 294 294 294 295 296 296 296 295 294 294 293 294 295 295 295 296 296 297 298 298 298 300 297 296 297 296 297 296 297 297 296 296 297 297 297 296 296 295 295 294 293 293 289 288 288 290 289 289 289 288 288 285 285 285 283 279 280 282 284 286 286 286 287 287 287 287 287 287 287 288 288 288 288 288 288
289 290 290 291 291 291 291 292 292 292 292 293 293 293 293 293 293 294 294 293 293 293 295 295 296 295 294 295 295 296 296 298 298 296 295 295 295 296 295 295 296 294 295 295 296 296 296 296 295 295 295 293 292 290 289 289 289 289 289 288 287 287 285 287 283 287 283 280 282 283 284 286 286 287 287 287 286 287 287 287 288 287 287 288 287
289 289 289 289 290 290 290 291 291 292 292 292 292 292 292 292 292 292 291 292 293 293 293 294 294 294 294 294 294 294 295 295 296 297 295 295 295 295 294 294 294 295 293 294 294 295 295 295 295 294 294 293 292 291 290 289 289 289 287 287 287 287 287 287 287 285 283 283 280 282 283 284 284 285 286 287 287 287 287 287 287 288 288 288 287
288 289 288 289 289 289 289 289 289 290 291 291 291 291 291 291 290 290 290 290 291 291 292 291 291 292 292 292 292 293 293 293 295 293 294 294 294 293 293 293 293 294 293 292 291 291 293 293 294 294 294 294 293 292 291 291 290 290 289 289 287 286 287 288 286 285 284 282 285 281 282 283 283 286 287 286 287 287 286 287 287 287 287 287 287
287 287 288 288 288 288 288 288 288 289 289 289 289 289 290 290 289 289 289 289 289 289 289 289 290 290 290 290 291 291 292 292 293 293 293 293 293 292 292 293 292 292 292 292 292 292 291 291 292 292 293 294 294 293 292 291 291 290 289 287 288 288 288 288 288 286 287 286 284 282 280 284 285 284 284 287 287 286 286 286 286 287 287 287 287
Wind_Speed
8 12 10 15 17 18 19 19 18 18 16 15 15 14 14 13 12 12 11 11 10 11 11 11 11 12 12 11 11 10 11 11 11 10 9 8 8 7 7 6 6 6 8 7 8 9 11 11 11 13 12 12 12 11 11 11 11 11 11 10 10 10 9 10 10 10 9 8 11 11 10 10 10 11 12 13 15 13 11 9 7 5 4 8 11
11 11 11 11 17 18 19 19 18 18 17 16 15 14 14 13 13 12 11 11 11 10 10 11 11 11 12 11 11 11 10 11 10 10 9 8 8 7 6 5 5 5 7 6 9 11 11 11 11 12 12 11 11 10 10 10 10 10 10 9 9 9 9 9 9 9 9 8 8 8 8 10 10 10 11 13 14 13 10 8 7 4 4 11 11
10 12 10 12 17 17 17 18 19 18 17 17 16 15 14 13 12 12 11 11 10 10 10 11 11 11 12 11 10 10 10 11 10 9 9 8 7 6 6 5 4 4 5 6 8 11 11 11 12 12 11 11 10 9 9 9 9 9 9 9 8 8 7 7 8 8 7 7 7 8 8 8 10 10 11 12 13 13 10 10 8 6 7 12 10
11 10 10 13 17 17 17 17 18 18 16 15 15 14 14 13 13 12 11 11 11 11 11 11 11 11 11 11 11 10 10 10 10 9 9 8 7 6 5 4 4 6 6 8 10 10 11 11 13 12 11 10 9 9 8 8 8 8 8 8 8 7 7 6 6 6 6 7 6 5 2 2 5 10 11 11 12 13 11 10 10 11 11 11 12
10 9 10 11 12 15 17 17 16 16 17 16 16 15 15 14 13 13 12 11 12 12 12 11 11 11 10 11 11 10 10 10 9 9 8 8 6 5 5 5 5 6 8 8 9 9 10 12 12 11 10 9 8 8 8 8 7 7 7 7 7 7 7 7 6 5 5 3 4 1 1 1 3 8 10 11 11 11 8 10 11 11 10 11 12
9 9 9 10 10 13 18 17 17 17 16 17 17 16 15 14 13 13 13 12 13 12 12 12 11 11 11 10 11 10 10 9 9 9 8 7 6 5 5 4 6 7 9 9 9 9 10 12 11 11 9 8 7 7 7 6 6 6 6 6 5 5 6 7 8 7 5 4 3 1 2 1 4 4 9 10 10 9 8 11 12 11 11 11 10
10 8 9 10 8 11 17 18 19 18 17 18 17 17 16 15 15 14 13 13 13 13 12 12 12 11 11 10 10 10 10 10 9 8 8 7 6 5 5 5 6 8 9 10 9 9 9 9 9 9 8 7 6 6 6 6 6 6 6 5 5 5 5 7 8 8 7 4 3 2 3 1 2 2 9 7 9 11 10 10 10 11 11 10 11
8 8 9 9 8 11 16 18 18 19 19 16 15 15 16 16 15 15 14 13 13 13 13 12 12 11 10 10 10 10 10 10 10 10 8 7 6 6 6 6 8 9 9 9 8 8 8 8 8 8 7 6 5 5 5 5 5 5 5 5 5 5 6 7 7 8 8 3 3 3 4 3 3 3 8 7 8 9 10 10 10 11 11 11 8
9 9 9 9 8 13 15 16 17 18 20 17 17 16 16 16 16 15 15 14 13 12 12 12 12 11 11 11 10 10 10 10 10 11 10 8 7 7 7 8 8 8 7 7 7 7 7 7 6 6 6 6 5 5 5 5 5 6 5 5 5 6 6 7 7 7 5 3 4 3 5 4 3 3 7 9 9 9 10 9 8 10 10 8 8
9 9 10 8 8 14 15 15 17 17 19 18 17 17 18 17 16 16 15 14 14 13 13 13 12 12 11 11 10 10 11 11 12 11 10 10 9 8 9 9 7 6 4 6 6 6 5 6 4 4 4 4 4 4 5 5 5 5 5 5 5 6 7 7 7 5 3 5 5 4 5 5 4 4 8 10 12 11 11 9 7 6 7 10 9
10 9 9 9 9 14 15 16 16 16 17 16 15 16 18 17 17 16 16 15 14 14 13 13 13 12 11 11 10 11 12 13 13 12 11 11 11 10 10 8 7 5 4 4 5 4 4 4 4 3 3 4 4 4 5 5 5 5 5 5 6 7 8 8 5 4 5 6 5 5 5 6 3 4 10 11 11 11 9 7 7 9 10 10 10
10 9 9 8 12 15 15 15 15 16 16 15 16 15 16 17 16 16 16 15 14 14 14 13 12 12 12 11 10 11 14 13 13 13 11 11 11 10 10 9 7 5 3 0 3 0 2 1 2 2 2 3 3 4 4 5 5 5 5 6 6 7 8 8 5 6 6 6 6 5 5 4 3 4 10 10 11 11 10 9 9 9 8 8 8
7 8 8 8 10 15 15 16 15 15 15 15 17 17 15 16 16 15 15 15 15 14 14 13 11 11 12 11 12 13 14 14 13 13 11 10 9 8 8 8 6 5 6 2 1 5 2 2 2 2 5 3 3 4 4 4 5 5 6 6 7 9 8 7 4 5 5 5 5 5 5 4 3 6 7 8 7 8 9 9 9 8 8 7 7
7 6 8 8 9 15 17 15 15 15 15 15 16 16 15 15 16 15 15 15 14 14 13 13 12 11 11 12 13 14 14 14 14 13 11 10 9 7 7 7 6 5 4 4 2 3 1 3 4 6 6 4 3 3 4 4 4 5 6 7 8 9 9 5 6 5 5 4 5 5 5 5 4 8 7 6 6 6 6 7 7 8 8 8 7
7 6 7 8 8 12 18 17 15 15 15 15 15 15 15 14 15 15 15 14 13 13 13 12 11 11 10 12 14 15 14 14 13 12 12 10 9 8 7 6 6 7 7 4 4 2 2 2 4 5 5 4 4 3 4 4 5 5 6 7 8 9 8 4 4 5 6 5 4 5 6 4 5 6 7 7 7 6 5 5 5 5 5 6 7
6 6 7 7 8 9 11 14 16 15 14 15 15 15 15 14 14 15 15 14 13 13 12 11 10 10 11 13 14 15 15 14 13 14 12 11 10 10 9 8 6 4 5 5 5 5 3 2 4 5 5 4 4 4 4 5 6 6 7 7 7 8 8 4 4 5 5 5 4 4 5 4 7 8 7 7 7 6 5 5 5 5 5 6 6
5 7 7 7 8 8 9 10 12 16 14 14 15 15 15 15 14 15 14 13 12 12 11 11 10 10 11 12 12 12 12 12 12 13 12 10 12 11 10 10 9 7 6 6 7 6 5 4 5 8 6 5 5 4 5 5 6 6 7 7 8 9 8 6 5 5 6 5 4 4 5 4 5 7 6 6 5 5 4 4 5 5 5 5 6
4 7 7 7 8 8 9 8 10 10 10 11 13 15 14 15 15 14 14 13 12 12 11 10 9 10 11 11 11 11 10 11 10 11 10 11 11 10 9 10 9 8 7 6 6 6 5 6 10 8 7 6 6 5 5 5 6 6 6 7 8 8 7 7 5 5 5 5 5 4 5 5 7 6 6 6 5 5 4 4 4 4 4 4 4
3 5 7 8 8 8 9 8 9 9 9 8 7 11 15 14 15 14 14 13 13 13 12 11 10 10 11 11 10 10 9 9 9 9 10 10 9 9 7 7 8 8 7 7 7 7 6 9 9 8 7 7 6 5 5 5 6 6 6 7 7 6 7 6 4 5 5 5 4 5 5 5 5 5 5 5 5 4 4 3 3 3 2 2 2
2 4 6 7 8 9 8 8 9 10 9 8 8 8 12 14 13 14 14 13 13 13 12 11 11 12 11 11 9 7 6 7 11 9 10 11 10 7 8 6 7 7 6 6 7 7 8 10 7 8 9 8 7 6 5 5 5 6 6 6 6 6 5 4 5 5 5 5 4 4 6 5 4 5 5 4 4 3 3 2 3 3 3 3 2
3 4 5 6 7 9 10 8 9 10 10 9 8 9 9 13 11 13 13 13 13 13 12 12 12 12 12 11 10 8 6 6 8 6 10 8 10 11 9 8 7 5 5 6 7 7 9 9 8 9 10 9 8 6 4 5 5 5 5 6 5 4 4 5 5 4 4 3 4 5 7 4 4 4 4 4 4 4 4 3 3 4 4 4 4
6 6 6 7 7 8 10 10 9 11 10 9 8 8 7 10 9 8 9 10 11 11 10 8 9 7 10 9 6 6 6 6 6 7 7 8 9 12 11 10 8 5 4 6 8 9 9 10 9 9 10 9 7 3 1 3 4 4 5 5 3 2 4 5 5 5 3 3 3 5 7 4 3 3 4 4 4 4 4 4 5 4 4 4 5
5 7 7 8 8 7 7 10 10 10 10 9 7 7 9 8 8 8 7 9 8 9 8 8 7 7 7 7 6 6 6 6 7 7 7 10 10 12 12 11 9 7 5 6 7 9 10 10 10 9 10 9 4 2 1 2 1 3 5 3 1 2 4 5 4 5 3 2 3 5 7 5 2 3 4 4 4 3 4 5 4 5 5 5 4
9 9 10 7 7 7 8 10 10 10 10 9 7 7 7 8 7 7 7 7 7 7 7 7 7 7 7 6 6 6 6 6 8 12 10 7 8 11 12 12 10 8 7 6 7 9 10 10 10 10 7 4 3 2 1 1 1 0 1 0 0 2 3 4 4 4 4 3 3 5 6 6 2 1 5 5 5 4 3 4 5 5 4 4 4
10 8 5 8 8 9 7 7 8 10 11 9 9 8 8 8 7 7 7 7 7 7 7 7 7 7 7 6 6 6 6 6 6 6 6 6 6 6 7 6 6 5 6 4 4 5 6 4 5 7 5 4 3 2 2 2 2 1 1 2 1 2 3 3 4 4 3 3 2 6 6 6 4 2 3 5 5 4 4 5 5 5 4 4 4
4 5 9 8 9 9 9 8 7 8 10 10 10 9 9 8 9 9 8 7 8 7 7 6 6 7 7 7 7 7 7 6 6 7 6 7 7 6 6 6 6 5 5 6 5 5 5 5 6 6 5 4 4 3 3 4 3 2 2 3 2 2 3 3 4 4 3 2 2 5 6 6 6 2 3 4 5 5 4 5 5 5 5 5 4
6 9 7 8 9 9 10 8 8 7 9 9 8 8 8 8 9 8 9 8 7 8 7 7 7 7 7 7 8 7 7 7 7 7 7 7 7 6 6 6 6 6 6 7 6 6 6 6 6 6 4 4 3 4 4 4 3 3 3 3 2 3 3 3 4 3 2 3 3 5 5 6 7 3 2 3 4 5 4 3 5 5 4 4 3
5 7 6 8 8 11 10 9 9 9 7 8 9 9 8 8 8 9 9 9 9 8 8 8 7 7 7 7 7 7 7 7 7 7 7 7 7 7 7 7 6 6 6 7 7 6 7 7 6 5 4 4 3 4 4 4 4 4 4 3 3 3 3 3 3 3 3 2 2 4 4 5 6 5 1 2 3 4 5 4 5 4 5 4 2
5 7 7 7 9 10 9 10 9 9 8 7 8 8 7 7 7 8 9 9 9 9 9 8 8 7 7 8 7 8 7 7 8 8 7 7 7 7 7 7 7 6 6 6 8 7 7 7 7 6 6 5 5 4 4 4 4 4 5 3 3 4 3 3 4 3 3 2 2 3 5 5 6 4 2 1 2 2 4 4 3 3 4 4 5
10 8 6 8 6 7 9 10 10 10 8 6 6 6 7 8 7 8 9 8 8 8 7 8 8 8 7 7 9 8 8 8 7 7 8 7 7 7 7 7 7 7 7 8 7 8 7 6 6 6 6 6 6 7 5 5 4 4 5 4 4 5 4 4 3 5 3 2 2 2 5 5 6 6 4 0 2 3 3 4 2 1 2 4 4
3 4 6 7 6 6 7 9 8 7 6 7 6 6 6 6 7 6 6 7 7 7 7 8 7 8 8 8 8 8 7 7 8 8 6 7 7 7 7 7 7 7 7 7 6 7 7 8 7 7 7 7 7 7 7 6 5 5 4 5 5 5 4 3 3 4 4 3 3 2 3 6 6 7 8 4 3 1 2 4 6 4 4 9 6
8 9 5 1 4 7 8 7 8 7 7 7 6 6 6 5 4 5 5 5 5 6 6 7 7 7 7 8 8 8 8 7 8 8 8 7 7 7 7 7 8 7 7 7 7 6 7 6 7 7 6 6 6 6 6 7 6 6 4 5 4 6 5 5 4 4 4 4 3 2 3 3 6 7 8 9 8 6 6 7 7 7 9 7 8
8 8 8 2 5 6 6 7 7 6 7 7 7 6 5 4 5 5 4 4 6 5 6 6 6 6 6 7 8 7 7 8 8 9 8 8 7 7 7 8 7 7 7 7 7 6 6 6 6 5 6 5 5 5 4 5 6 6 6 5 6 5 5 5 5 6 5 5 4 4 3 3 3 6 8 8 9 9 8 8 9 9 8 12 4
8 9 11 11 4 1 3 4 5 6 6 5 4 5 4 4 4 4 4 6 5 5 5 5 5 5 6 6 7 6 7 6 7 7 7 7 7 7 8 7 7 7 7 7 8 7 7 7 7 7 6 7 7 6 6 6 6 5 5 4 5 6 5 5 5 6 5 5 5 4 4 3 3 3 3 7 8 9 9 9 9 9 10 9 7
11 12 12 10 6 2 3 3 4 4 4 4 5 4 4 4 4 4 5 5 5 5 5 5 5 5 6 6 6 6 6 6 6 8 6 6 7 6 7 7 6 6 7 7 7 6 7 8 7 7 6 6 6 7 7 7 7 7 7 6 6 6 5 6 5 4 4 4 5 4 5 4 4 3 3 3 5 7 8 8 8 9 9 8 6
12 10 11 11 11 9 6 4 3 3 3 3 2 3 3 3 3 4 5 4 4 5 5 5 5 5 5 6 5 5 5 6 6 6 7 6 7 7 6 5 6 6 6 6 6 8 7 6 7 8 7 6 7 6 6 7 6 6 5 6 6 6 6 6 6 5 4 4 5 4 4 4 4 4 3 3 3 4 7 7 7 7 8 6 5
10 12 12 11 12 11 10 10 7 5 4 3 4 4 3 3 2 3 3 4 4 4 4 4 4 5 5 5 5 5 5 5 6 6 7 7 7 7 6 6 5 7 7 6 6 6 7 7 6 6 7 7 7 6 4 6 6 6 5 5 5 6 6 7 6 5 4 4 4 4 4 4 4 4 4 4 3 3 5 6 6 6 6 6 5
10 11 11 11 10 9 9 11 9 7 6 5 5 5 5 6 5 5 4 3 2 2 3 4 4 4 5 5 5 5 5 5 5 6 6 6 6 7 6 6 6 7 7 6 6 4 5 6 7 4 6 6 6 7 7 5 4 4 4 4 4 3 4 4 4 4 5 4 4 4 5 5 5 5 4 4 4 4 3 4 5 4 4 4 3
10 11 12 12 12 12 12 14 13 11 8 7 7 7 6 6 6 6 6 5 5 5 4 4 2 3 4 4 5 6 6 5 5 5 6 6 6 6 6 6 6 7 7 6 5 5 4 5 8 7 4 5 7 6 5 5 4 3 2 1 1 1 2 2 3 4 5 4 5 4 4 5 5 5 5 5 4 4 4 4 4 3 1 2 2
11 12 14 14 14 13 12 13 12 11 10 8 7 7 7 7 6 6 7 6 6 6 6 4 4 5 3 3 4 4 5 6 6 6 7 7 6 7 7 6 6 7 7 7 7 7 9 8 7 8 7 3 2 5 6 6 4 4 2 2 2 1 1 1 3 4 4 4 4 4 5 4 5 5 5 6 6 4 5 4 4 4 3 2 1
13 14 15 14 14 12 13 13 10 11 10 9 9 8 7 6 5 5 2 4 3 4 6 5 6 4 3 2 3 3 4 4 4 5 6 6 6 6 6 6 6 7 8 9 9 9 8 7 7 5 8 6 4 5 6 8 8 2 2 1 0 1 1 0 2 4 4 4 3 6 5 4 4 5 5 5 5 5 5 5 4 4 4 4 3
14 14 14 12 12 13 13 11 10 11 10 8 6 8 6 3 4 3 3 5 6 6 6 6 6 6 5 4 3 1 1 1 2 2 3 5 6 5 6 7 7 7 8 6 6 6 6 6 6 5 4 9 7 8 8 10 3 8 7 3 1 3 2 2 4 5 4 4 6 6 5 6 6 4 3 4 4 4 5 6 5 5 4 5 4
10 12 11 13 14 12 11 10 10 10 10 10 9 5 4 6 6 4 4 3 3 4 5 4 5 6 5 5 4 3 2 1 0 0 1 2 3 3 5 5 6 6 6 6 6 7 8 8 8 9 6 4 4 4 9 11 7 4 3 5 3 4 3 3 5 8 6 6 6 7 7 6 7 6 5 5 5 5 4 4 5 5 5 5 5
10 10 11 11 10 11 11 12 11 11 11 11 10 7 6 4 5 4 5 5 3 3 5 6 6 7 6 5 5 3 2 0 1 0 1 0 1 2 2 2 4 4 6 7 7 8 7 6 7 8 7 7 5 7 9 10 6 11 4 7 3 4 2 9 10 4 6 6 7 7 5 7 7 6 5 7 6 6 6 4 5 6 5 5 5
11 11 11 10 9 11 11 10 10 11 11 12 12 9 10 10 9 9 8 7 7 8 6 6 5 3 2 4 3 3 3 2 3 2 1 2 1 1 2 3 3 3 4 5 6 8 9 9 10 9 9 9 8 5 7 7 7 12 8 5 2 1 7 3 4 5 3 5 7 7 7 7 8 8 7 7 6 7 7 5 6 5 6 5 5
11 10 9 10 10 11 11 11 10 11 11 12 11 9 9 9 9 9 8 7 7 7 7 3 2 1 1 2 2 3 3 3 3 3 3 3 4 2 1 2 3 4 4 5 5 4 5 6 7 8 9 7 8 6 6 8 7 8 5 3 6 7 5 4 4 5 0 3 4 5 7 7 6 7 7 7 8 8 7 8 7 8 7 6 5
10 7 9 11 12 12 11 11 11 10 11 11 12 10 10 9 8 6 5 6 5 5 4 4 3 1 1 2 1 2 2 2 3 3 4 4 3 3 2 1 2 3 3 4 5 6 6 8 7 7 9 8 5 8 9 9 7 8 8 9 2 0 4 7 7 3 1 3 4 6 7 5 6 7 8 8 8 7 7 7 8 8 7 6 6
8 7 9 10 13 12 12 12 11 12 11 11 12 11 9 9 9 8 7 7 6 5 6 6 7 7 7 5 2 1 2 1 1 3 3 3 3 4 4 3 2 3 2 4 6 6 5 4 6 8 8 8 9 10 8 7 11 9 9 11 8 2 2 1 3 10 6 4 6 4 3 7 6 7 8 9 9 9 8 8 7 8 7 7 7
8 8 8 9 10 11 12 12 13 12 12 13 13 13 11 9 8 7 8 7 7 7 7 7 8 7 9 9 9 7 4 2 1 1 2 2 3 3 4 4 4 4 2 3 4 4 5 6 6 6 7 7 7 7 7 8 9 9 5 9 7 8 4 3 1 1 6 6 5 8 8 2 3 7 9 9 8 9 10 9 8 8 7 7 7
6 6 7 9 10 10 13 14 14 11 11 13 12 13 12 10 10 10 10 9 9 9 8 10 9 8 8 8 7 8 8 9 8 4 3 2 3 3 3 4 4 4 3 3 4 4 4 5 5 6 7 9 7 8 10 8 8 8 8 6 9 7 5 5 4 3 3 3 7 7 8 11 10 11 11 9 12 9 8 8 8 8 8 8 7
5 7 9 9 10 11 10 14 11 10 11 12 12 12 10 10 10 10 10 10 10 9 9 10 10 10 9 8 7 6 6 7 8 9 9 8 6 4 3 4 4 4 4 4 4 4 5 5 6 5 6 8 8 8 9 8 7 8 9 7 9 9 11 10 9 6 7 6 3 4 4 9 13 9 8 12 9 9 8 8 9 9 9 8 7
Wind_Direction
190 163 172 173 168 165 164 164 163 161 161 160 158 158 156 154 154 153 155 152 154 154 153 149 148 146 143 141 139 138 135 132 128 121 114 109 101 95 95 93 94 92 73 94 104 99 98 99 92 91 88 84 78 74 71 68 66 66 64 62 55 48 44 46 40 40 43 57 81 82 81 81 83 85 81 79 81 82 76 69 62 51 50 64 66
170 164 166 171 169 167 166 166 164 164 163 163 163 162 161 158 158 157 157 158 159 158 157 154 152 149 146 145 143 140 141 136 133 129 123 118 106 103 96 96 87 82 92 102 104 105 102 95 94 88 86 84 79 75 72 67 65 64 64 62 58 52 42 37 37 31 27 30 61 68 76 83 81 80 81 81 84 83 75 67 62 64 70 72 67
149 158 164 170 169 168 168 167 167 166 167 166 166 165 163 162 162 159 161 160 161 161 159 157 156 151 149 147 146 144 143 141 136 135 132 124 118 111 109 93 67 66 83 105 108 105 99 98 90 86 84 81 78 75 72 68 61 58 57 55 54 48 42 38 36 33 27 20 46 49 59 77 84 83 84 83 84 82 77 70 61 59 75 74 69
148 161 164 168 169 168 167 169 170 168 168 167 168 166 166 165 164 163 164 168 162 165 163 162 158 156 152 149 147 147 147 145 144 141 138 132 126 117 110 90 83 75 101 107 108 105 104 98 88 84 80 78 80 76 73 70 64 58 51 47 42 37 31 24 32 33 24 14 1 3 11 61 77 87 87 88 87 84 78 73 69 71 72 72 70
150 157 163 167 170 169 167 168 171 169 169 165 169 166 168 165 166 166 166 166 167 166 166 164 162 159 156 154 151 150 151 149 149 147 143 140 129 126 115 99 95 100 104 114 104 103 95 89 87 84 80 77 75 74 71 69 67 62 54 45 38 28 16 9 7 27 33 359 323 315 270 98 83 86 92 93 90 88 93 90 81 71 63 71 73
150 158 162 167 171 171 167 167 170 170 171 166 168 167 168 166 162 167 168 169 171 169 170 167 167 167 164 162 160 159 157 158 156 152 145 142 143 136 119 113 117 119 117 108 112 108 95 90 92 87 79 73 72 71 69 65 64 59 55 47 37 26 12 359 354 3 7 348 320 208 189 150 98 101 98 95 94 86 85 86 86 82 74 68 66
149 158 162 169 172 175 169 167 170 172 172 169 169 168 169 168 167 167 168 173 174 171 175 172 174 172 172 173 170 168 166 160 155 152 149 148 143 139 124 123 132 125 120 118 115 97 89 87 85 83 75 68 63 58 57 56 53 49 45 43 36 23 11 1 352 348 351 360 17 50 98 53 94 97 105 91 91 96 92 88 87 85 81 77 71
143 157 166 169 172 179 172 170 170 171 173 171 170 170 170 169 169 168 169 174 178 175 177 180 180 180 182 182 178 177 174 161 157 154 148 141 143 138 117 124 127 132 129 124 108 96 90 83 79 86 84 68 55 55 51 50 45 43 40 34 31 22 12 2 353 343 344 358 62 74 102 96 66 85 105 109 107 101 94 88 88 93 90 87 76
153 161 165 169 174 178 175 172 172 174 173 171 170 171 172 172 171 171 172 176 179 180 182 185 186 188 187 187 184 181 172 160 161 155 149 139 133 126 119 122 130 130 135 120 107 94 86 82 76 85 87 68 52 50 48 45 45 40 38 32 27 25 14 4 349 347 353 7 53 76 99 98 91 77 96 96 97 93 86 72 72 86 91 85 80
156 162 168 166 175 180 176 175 174 175 176 174 172 173 174 174 176 175 176 179 183 182 185 189 191 191 191 189 189 178 172 165 160 158 143 139 132 131 130 132 136 134 131 121 118 105 99 92 83 73 84 73 58 50 53 45 43 43 39 34 30 26 13 359 354 358 12 32 36 91 102 103 103 104 98 90 87 85 73 81 85 85 84 80 82
158 162 167 168 172 178 180 179 175 177 178 177 175 176 176 177 177 179 180 183 185 186 189 192 194 193 193 192 189 177 170 166 164 154 147 139 139 137 136 135 125 138 149 150 117 130 104 111 101 78 59 70 64 61 57 52 51 50 46 42 38 24 11 9 25 30 36 37 44 44 68 75 97 99 92 87 86 84 82 84 91 95 95 96 89
155 162 167 166 171 176 181 183 178 179 179 178 177 180 182 180 181 182 183 184 186 190 192 194 194 193 197 191 187 179 168 170 165 150 148 148 148 134 117 128 136 115 126 67 182 149 154 139 110 88 83 78 72 63 57 61 59 56 51 44 36 21 15 22 40 43 46 50 50 42 42 42 39 112 102 95 91 89 91 89 90 85 83 84 88
165 156 167 164 169 177 182 183 182 183 180 179 180 183 186 183 185 186 185 185 187 193 194 196 198 197 196 188 187 175 173 172 164 158 155 155 148 142 132 127 129 154 160 99 201 217 201 149 145 102 105 103 85 74 71 69 62 52 48 43 28 20 14 20 42 43 49 57 54 43 38 30 22 86 97 95 90 87 79 78 79 79 74 70 69
181 141 164 164 171 178 180 183 183 185 182 180 182 185 187 185 186 188 188 188 190 192 197 198 202 202 195 189 187 177 178 177 168 168 163 166 161 151 144 143 152 154 172 156 4 354 273 146 132 111 114 111 93 93 90 80 65 56 48 37 26 18 11 14 32 42 48 45 53 46 36 20 46 79 87 92 96 90 82 74 69 72 67 67 66
167 149 153 162 169 178 180 181 183 185 184 183 184 186 189 187 186 189 191 192 193 194 198 199 202 202 195 191 186 181 183 177 168 166 170 170 164 156 154 154 170 185 186 166 227 211 216 123 114 120 124 115 102 97 86 72 62 53 47 39 27 19 19 26 38 46 52 58 48 45 31 18 40 100 99 87 81 74 74 69 64 64 67 62 60
155 146 142 157 165 172 181 184 182 185 186 184 185 188 191 191 190 192 194 194 193 197 200 201 201 196 192 193 188 187 183 178 167 169 178 170 161 162 161 164 174 198 202 201 203 200 184 175 138 126 121 114 111 94 79 68 61 50 42 37 27 25 31 51 51 48 56 62 52 45 26 12 31 73 84 90 81 77 68 66 57 58 62 64 59
140 138 141 155 161 168 178 184 186 186 187 186 186 189 190 190 191 192 193 194 193 197 201 204 202 190 186 191 189 189 184 178 174 174 179 169 165 167 164 163 164 176 203 191 193 178 193 176 123 125 127 125 122 109 86 75 70 61 52 40 30 22 30 42 52 45 53 55 57 39 22 10 34 71 78 81 88 85 77 70 67 64 63 61 60
146 139 150 155 162 171 176 181 186 188 188 188 190 191 191 190 190 192 190 190 192 196 200 202 199 192 188 189 191 188 186 182 172 176 164 159 161 160 159 165 165 172 190 184 179 182 167 136 124 137 138 138 129 113 98 91 85 79 68 49 30 25 36 44 48 60 63 55 43 35 19 3 52 68 74 73 72 79 79 69 66 68 65 64 60
166 149 150 156 170 172 177 181 186 189 191 189 188 195 192 193 191 191 189 189 191 194 196 196 189 185 186 189 192 185 186 176 158 160 152 151 144 141 151 167 166 175 184 179 179 172 157 128 140 146 145 142 133 119 113 99 93 91 73 50 34 32 37 45 57 69 67 57 44 30 4 14 77 76 82 89 86 85 80 81 83 79 65 72 95
183 180 164 169 171 176 178 185 187 190 191 191 192 189 195 193 193 191 190 191 192 193 193 187 181 180 186 187 184 163 163 166 162 160 153 146 140 139 136 140 170 175 190 191 183 177 169 148 157 156 148 143 137 128 124 115 100 84 66 47 37 41 42 52 74 74 70 62 53 25 360 35 79 87 87 81 79 78 78 101 106 89 71 86 104
217 216 197 186 177 180 183 184 192 192 193 191 192 192 194 192 193 192 191 193 192 191 189 183 178 182 184 181 164 164 159 166 162 159 152 149 148 143 140 143 161 179 184 196 192 186 177 172 171 161 149 141 123 121 126 117 96 80 58 42 37 39 50 71 75 79 70 59 46 15 10 50 71 87 80 83 86 88 99 105 98 90 96 77 80
213 221 221 205 188 187 188 187 188 195 192 193 194 192 188 189 190 191 192 193 192 188 186 182 179 178 174 166 165 165 156 158 160 154 153 153 151 150 149 151 161 164 174 202 195 183 174 173 176 171 146 123 110 86 56 71 71 62 38 28 33 47 61 84 88 82 77 59 45 12 21 52 72 92 87 83 90 99 106 97 100 106 106 100 97
233 228 228 214 206 192 185 188 192 191 192 193 195 192 186 186 189 188 189 189 188 185 184 180 178 173 169 168 165 164 159 157 157 161 158 159 158 156 156 158 161 166 172 198 189 179 175 173 178 173 136 120 106 109 77 58 49 25 30 14 56 55 65 86 96 93 89 80 39 20 29 37 66 103 120 112 101 107 103 104 110 124 122 122 122
217 207 211 209 203 204 195 189 189 187 187 193 192 189 188 185 188 187 185 184 184 185 183 180 179 175 171 167 166 163 160 159 162 158 150 154 159 158 160 161 163 162 173 181 180 175 159 179 179 153 121 115 117 122 109 63 124 6 8 343 26 52 78 93 100 102 92 68 39 28 23 24 25 134 129 136 115 117 138 130 118 106 112 116 131
210 206 206 209 207 206 203 197 188 186 186 189 189 189 187 184 189 188 187 184 183 183 183 182 180 176 171 170 169 162 162 158 156 155 155 153 155 160 158 161 157 158 160 146 144 143 134 137 122 115 137 136 130 171 143 163 229 205 264 244 137 86 83 89 100 95 91 74 41 37 22 11 12 203 146 130 139 138 148 142 131 118 96 102 113
189 186 208 207 209 204 200 203 186 190 190 188 192 188 177 184 187 190 186 186 185 185 184 183 181 178 173 172 165 164 164 161 161 162 162 162 161 163 163 158 155 160 150 146 135 125 118 119 129 139 165 160 164 183 191 170 202 210 209 198 107 90 100 94 103 105 106 83 46 37 23 7 9 43 140 155 137 152 141 144 141 123 134 126 118
195 214 201 206 203 201 202 195 199 190 197 192 190 184 187 186 185 184 185 190 186 185 189 185 186 179 175 172 169 174 166 163 167 169 169 167 165 166 163 162 163 161 163 146 145 139 135 139 144 159 176 191 193 193 187 189 154 156 166 119 123 124 101 95 111 122 122 94 55 38 23 14 13 27 97 132 158 139 161 124 138 163 129 116 145
174 218 210 202 194 204 200 191 200 196 191 193 191 191 190 180 185 182 189 187 185 193 192 191 182 182 178 179 177 174 169 166 171 172 173 166 169 168 163 165 163 166 166 154 149 148 147 149 154 166 180 204 194 169 143 137 151 139 118 109 106 108 111 109 112 125 121 105 76 35 35 21 16 20 42 146 164 180 149 182 172 155 150 135 133
208 216 211 192 204 201 192 196 199 202 199 185 190 193 191 185 179 185 191 183 189 193 191 186 188 183 182 180 178 179 178 171 172 176 159 171 166 166 168 170 164 168 164 169 159 159 158 161 165 176 184 187 180 155 132 122 128 128 130 117 123 122 120 104 105 116 116 115 85 45 38 28 30 37 38 45 150 165 186 175 216 182 164 151 177
216 211 187 206 201 191 191 195 196 199 198 186 196 182 189 191 186 187 189 182 192 186 181 186 192 184 187 183 185 183 183 175 173 169 168 170 167 167 169 171 171 169 171 175 175 163 164 164 169 177 177 179 171 170 143 143 137 143 142 144 153 149 152 148 130 130 142 117 92 62 45 43 38 50 47 8 207 184 195 193 222 165 146 165 181
273 209 197 205 194 178 196 197 196 192 182 191 193 194 182 196 192 184 178 187 184 176 183 185 187 191 189 184 185 186 177 172 172 171 172 164 167 168 177 169 171 181 181 174 171 170 163 171 174 175 176 175 175 166 153 152 155 160 165 153 173 147 156 153 127 137 131 141 117 87 53 52 50 40 44 74 83 125 186 191 204 203 228 214 178
1 319 300 281 170 189 195 195 191 185 178 192 186 191 190 195 188 183 186 182 173 180 183 183 189 192 186 186 185 185 178 174 169 171 172 168 169 173 172 175 185 181 184 174 168 171 169 170 170 172 172 167 166 164 159 146 159 169 166 163 165 153 157 152 127 126 139 142 137 112 86 65 58 52 45 56 68 64 61 54 43 28 15 345 199
358 353 334 262 200 194 185 196 186 173 181 188 189 191 180 175 178 187 183 168 176 173 179 187 189 191 188 189 188 182 180 170 176 171 171 170 168 170 177 186 182 175 182 177 163 162 158 160 170 162 159 156 156 171 154 149 150 169 162 173 160 159 163 142 137 132 145 159 152 139 121 99 77 59 51 46 51 63 66 58 45 39 19 2 258
358 354 2 355 302 234 172 158 166 171 185 182 170 176 180 171 162 170 169 165 174 176 179 177 180 183 183 189 184 180 179 172 165 170 167 169 171 174 176 185 181 175 174 167 170 170 167 164 169 159 169 162 172 173 159 163 172 163 168 176 162 169 160 150 157 158 155 153 161 151 142 119 99 83 66 46 41 50 60 60 59 46 33 17 327
10 9 7 349 15 32 101 116 149 164 160 162 164 174 168 157 153 160 169 171 171 175 172 163 165 177 175 184 179 176 178 163 164 161 170 168 170 176 180 185 172 167 170 178 167 173 163 170 161 166 166 168 173 176 172 171 167 174 181 173 172 171 155 161 159 158 160 153 150 164 155 144 134 111 89 76 53 46 52 62 57 53 46 36 32
17 6 7 9 23 10 28 67 80 107 157 138 121 140 153 148 143 152 159 167 164 169 173 170 162 154 162 174 178 169 164 158 158 157 161 171 171 177 183 163 168 162 169 170 165 172 172 164 178 159 162 185 173 186 174 166 170 175 182 175 178 171 159 157 162 165 177 135 156 157 158 160 155 140 130 108 91 66 65 63 62 55 51 46 50
20 20 15 18 29 23 29 39 36 43 68 72 70 64 79 89 102 124 144 146 153 160 167 153 140 141 144 159 161 158 157 150 156 160 158 167 170 172 171 168 160 162 164 172 177 172 165 168 178 183 168 172 183 172 175 166 174 179 180 175 181 169 165 165 164 170 150 155 166 137 136 169 156 147 144 135 122 109 81 79 72 57 38 44 58
23 24 23 32 34 29 26 27 26 31 41 59 65 64 58 56 49 49 53 66 81 109 124 131 139 138 140 149 153 154 153 144 151 157 160 167 168 170 170 167 164 163 165 166 179 159 166 161 174 195 178 158 183 176 180 176 164 170 180 182 192 170 175 170 170 166 159 176 176 158 165 157 144 157 153 153 153 139 124 104 90 72 46 38 71
15 21 29 31 36 35 34 31 26 15 26 39 37 45 40 43 46 43 45 39 38 39 52 62 88 114 136 154 154 153 154 146 150 155 155 161 164 171 172 176 167 163 161 168 164 164 167 180 175 188 196 190 178 188 167 147 132 122 132 199 162 166 203 187 167 165 179 182 181 184 154 159 146 157 160 165 168 158 148 141 126 120 92 48 63
15 20 29 32 34 35 36 35 28 27 24 23 32 32 43 39 33 10 30 19 22 38 38 54 54 74 103 138 149 158 163 159 158 165 166 167 171 178 181 173 169 162 168 172 180 178 185 184 194 179 182 186 145 154 130 124 85 78 59 19 14 37 107 191 174 187 190 186 186 163 174 185 159 165 165 171 171 171 164 163 161 161 158 155 145
20 21 31 31 33 35 38 34 24 30 33 29 31 34 17 4 22 34 30 4 23 27 33 24 39 39 59 84 125 151 164 163 161 161 174 173 181 178 177 177 173 175 180 190 187 189 189 182 179 180 173 179 191 169 166 140 132 82 15 17 333 345 340 360 218 221 220 207 187 173 187 172 186 173 177 169 172 176 171 171 175 173 179 180 184
15 21 28 29 31 32 35 31 27 29 31 32 36 50 40 51 74 30 45 28 19 26 12 13 25 39 37 44 43 57 126 165 149 165 171 181 177 176 184 184 175 189 195 189 183 186 179 178 164 184 206 185 197 182 175 130 177 175 159 210 321 319 294 306 264 247 226 204 194 182 178 181 188 193 179 169 180 180 178 177 176 181 188 187 189
24 27 23 31 29 30 28 29 28 29 25 24 31 28 27 39 54 34 50 64 56 61 61 31 48 52 43 38 38 34 43 22 34 106 171 208 200 181 197 188 188 183 181 187 187 192 192 187 181 185 195 230 200 194 185 193 167 134 100 94 231 209 300 299 266 236 214 203 192 189 185 184 193 190 183 181 192 197 195 182 182 188 192 194 186
27 32 30 33 35 32 30 29 27 27 25 20 24 23 38 54 50 51 29 60 54 17 38 28 30 38 24 21 32 43 41 26 14 5 322 296 206 206 189 186 206 196 194 192 193 202 195 193 192 202 176 188 199 208 209 200 141 140 189 202 201 139 274 239 222 252 203 210 196 204 189 197 190 195 180 192 197 197 203 190 189 194 197 195 184
23 29 30 32 36 35 32 34 34 30 26 23 20 20 24 24 19 24 30 16 12 17 17 11 17 33 16 13 351 23 27 8 355 344 314 271 241 204 174 205 209 213 209 210 203 206 202 199 196 196 191 192 208 210 220 222 210 202 156 110 47 265 220 233 166 263 193 213 223 208 206 199 195 192 191 203 196 198 193 196 196 196 201 195 189
20 18 26 35 37 35 33 34 36 33 29 26 25 31 36 35 30 33 26 23 24 11 10 356 8 357 323 303 351 8 24 13 2 352 342 340 323 318 261 182 206 208 211 218 215 215 216 212 207 202 206 215 201 192 214 233 233 246 246 238 150 179 180 219 126 259 328 248 230 219 212 208 198 197 201 199 200 203 198 196 194 197 197 195 191
12 4 25 37 38 38 36 38 37 35 29 28 28 29 33 33 41 45 45 41 30 354 339 357 6 1 67 38 337 343 20 14 351 6 348 337 328 324 319 285 262 251 233 226 223 218 215 213 208 209 211 211 189 203 207 212 235 257 259 261 289 128 161 128 211 83 280 284 237 224 232 222 210 204 206 210 204 199 208 200 197 195 198 190 187
355 5 29 35 39 37 38 37 39 38 33 29 32 31 36 29 30 28 33 24 20 2 355 353 12 11 19 5 29 350 335 25 346 340 359 343 332 319 316 309 288 261 246 234 235 231 230 234 221 220 217 214 208 211 207 202 200 225 223 245 256 285 239 357 148 181 170 170 238 256 276 226 220 223 213 209 204 203 201 205 200 199 198 197 182
3 7 25 36 41 40 40 39 39 36 32 32 33 29 32 31 33 28 27 16 11 8 351 9 14 9 30 12 6 349 340 327 339 301 320 330 317 294 308 311 302 285 234 255 257 255 239 231 225 223 221 224 219 222 210 213 212 224 204 243 253 248 261 251 329 161 170 192 244 196 214 221 243 243 231 216 209 205 200 197 198 198 201 201 189
352 356 21 35 41 41 40 42 36 32 30 33 34 34 32 30 31 26 29 18 15 10 16 10 4 2 21 18 12 13 6 355 331 322 311 302 297 292 288 284 280 283 288 248 263 270 263 254 242 233 227 228 222 219 221 221 218 224 214 215 221 234 253 266 262 232 297 210 220 197 199 188 206 231 216 213 215 206 197 191 194 198 201 203 196
10 16 23 29 38 41 39 45 36 32 30 32 34 35 34 34 35 30 30 27 20 23 21 12 4 6 4 3 13 3 14 11 7 1 352 341 323 302 273 272 282 286 289 291 263 248 253 250 251 250 245 236 231 229 232 231 224 226 227 219 225 210 216 216 216 210 211 223 231 233 206 206 206 225 225 213 209 203 196 192 195 199 200 200 199